#timestamp,LO_Frequency,Hit 
1501340415.3,286046988.9,N
1501340435.2,286046989.8,N
1501340455.9,286046990.0,N
1501340475.7,286046986.6,N
1501340495.5,286046985.8,N
1501340515.4,286046985.5,N
1501340535.2,286046985.3,N
1501340555.0,286046987.4,N
1501340555.9,286046987.4,N
1501340575.8,286046986.9,N
1501340595.6,286046987.4,N
1501340615.4,286046989.6,N
1501340635.3,286046989.6,N
1501340655.1,286046989.4,N
1501340656.0,286046989.4,N
1501340675.8,286046987.5,N
1501340695.7,286046985.6,N
1501340715.5,286046985.3,N
1501340735.3,286046988.4,N
1501340755.1,286046990.0,N
1501340775.9,286046988.9,N
1501340795.7,286046988.0,N
1501340815.5,286046986.7,N
1501340835.4,286046982.1,N
1501340855.2,286046982.6,N
1501340875.0,286046985.1,N
1501340875.9,286046985.1,N
1501340895.8,286046984.9,N
1501340915.6,286046984.3,N
1501340935.4,286046983.7,N
1501340955.3,286046984.8,N
1501340975.1,286046981.3,N
1501340976.0,286046981.3,N
1501340995.8,286046981.5,N
1501341015.7,286046980.6,N
1501341035.5,286046983.1,N
1501341055.3,286046984.6,N
1501341075.1,286046982.5,N
1501341095.9,286046984.2,N
1501341115.7,286046986.7,N
1501341135.5,286046984.6,N
1501341155.4,286046983.2,N
1501341175.2,286046982.6,N
1501341195.0,286046983.2,N
1501341195.9,286046983.2,N
1501341215.8,286046982.3,N
1501341235.6,286046983.3,N
1501341255.4,286046982.7,N
1501341275.3,286046984.5,N
1501341295.1,286046985.1,N
1501341296.0,286046985.1,N
1501341315.8,286046985.1,N
1501341335.6,286046982.6,N
1501341355.5,286046984.9,N
1501341375.3,286046986.3,N
1501341395.1,286046983.7,N
1501341415.9,286046984.0,N
1501341435.7,286046983.6,N
1501341455.5,286046983.1,N
1501341475.4,286046982.7,N
1501341495.2,286046984.8,N
1501341515.0,286046984.4,N
1501341515.9,286046984.4,N
1501341535.8,286046984.6,N
1501341555.6,286046984.0,N
1501341575.4,286046985.0,N
1501341595.2,286046984.4,N
1501341615.1,286046984.5,N
1501341616.0,286046984.5,N
1501341635.8,286046983.9,N
1501341655.6,286046984.6,N
1501341675.5,286046984.9,N
1501341695.3,286046984.3,N
1501341715.1,286046982.6,N
1501341735.9,286046980.5,Y
1501341755.7,286046995.5,N
1501341775.5,286046997.7,N
1501341795.4,286046996.9,N
1501341815.2,286046996.7,N
1501341835.0,286046997.0,N
1501341835.9,286046997.0,N
1501341855.8,286046997.2,N
1501341875.6,286046996.5,N
1501341895.4,286046997.5,N
1501341915.3,286046995.0,N
1501341935.1,286046993.3,N
1501341936.0,286046993.3,N
1501341955.8,286046995.2,N
1501341975.7,286046995.6,N
1501341995.5,286046997.4,N
1501342015.3,286046996.8,N
1501342035.1,286046999.4,N
1501342055.9,286046999.5,N
1501342075.7,286046995.3,N
1501342095.5,286046993.3,N
1501342115.4,286046993.3,N
1501342135.2,286046993.5,N
1501342155.0,286046996.4,N
1501342155.9,286046996.4,N
1501342175.8,286046993.5,N
1501342195.6,286046993.5,N
1501342215.4,286046995.8,N
1501342235.3,286046995.4,N
1501342255.1,286046993.9,N
1501342256.0,286046993.9,N
1501342275.8,286046996.4,N
1501342295.7,286046996.0,N
1501342315.5,286046994.1,N
1501342335.3,286046993.6,N
1501342355.1,286046993.6,N
1501342375.9,286046994.2,N
1501342395.7,286046994.0,N
1501342415.5,286046994.3,N
1501342435.4,286046994.5,N
1501342455.2,286046991.8,N
1501342475.0,286046992.8,N
1501342475.9,286046992.8,N
1501342495.8,286046993.1,N
1501342515.6,286046994.7,N
1501342535.4,286046994.2,N
1501342555.3,286046994.0,N
1501342575.1,286046994.4,N
1501342576.0,286046994.4,N
1501342595.8,286046993.6,N
1501342615.6,286046993.8,N
1501342635.5,286046993.4,N
1501342655.3,286046993.3,N
1501342675.1,286046994.3,N
1501342695.9,286046993.6,N
1501342715.7,286046993.0,N
1501342735.5,286046992.2,N
1501342755.4,286046991.7,N
1501342775.2,286046991.7,N
1501342795.0,286046992.1,N
1501342795.9,286046992.1,N
1501342815.8,286046990.3,N
1501342835.6,286046990.9,N
1501342855.4,286046989.3,N
1501342875.2,286046989.8,N
1501342895.1,286046988.8,N
1501342896.0,286046988.8,N
1501342915.8,286046991.6,N
1501342935.6,286046991.6,N
1501342955.5,286046989.0,N
1501342975.3,286046990.4,N
1501342995.1,286046991.6,N
1501343015.9,286046992.8,N
1501343035.7,286046994.1,N
1501343055.5,286046994.7,N
1501343075.4,286046991.1,N
1501343095.2,286046991.0,N
1501343115.0,286046990.8,N
1501343115.9,286046990.8,N
1501343135.8,286046991.2,N
1501343155.6,286046993.0,N
1501343175.4,286046990.5,N
1501343195.2,286046992.5,N
1501343215.1,286046992.0,N
1501343216.0,286046992.0,N
1501343235.8,286046991.5,N
1501343255.6,286046989.5,N
1501343275.5,286046987.1,N
1501343295.3,286046987.7,N
1501343315.1,286046987.2,N
1501343335.9,286046987.8,N
1501343355.7,286046988.0,N
1501343375.5,286046989.2,N
1501343395.4,286046989.5,N
1501343415.2,286046987.3,N
1501343435.0,286046985.4,N
1501343435.9,286046985.4,N
1501343455.8,286046985.5,N
1501343475.6,286046988.1,N
1501343495.4,286046989.7,N
1501343515.2,286046985.7,N
1501343535.1,286046986.4,N
1501343536.0,286046986.4,N
1501343555.8,286046988.3,N
1501343575.6,286046986.6,N
1501343595.5,286046987.7,N
1501343615.3,286046989.6,N
1501343635.1,286046987.0,N
1501343655.9,286046987.1,N
1501343675.7,286046989.2,N
1501343695.5,286046989.3,N
1501343715.4,286046986.9,N
1501343735.2,286046987.9,N
1501343755.0,286046988.3,N
1501343755.9,286046988.3,N
1501343775.7,286046988.4,N
1501343795.6,286046989.8,N
1501343815.4,286046987.4,N
1501343835.2,286046988.2,N
1501343855.1,286046986.0,N
1501343856.0,286046986.0,N
1501343875.8,286046986.1,N
1501343895.6,286046983.7,Y
1501343915.5,286047000.8,N
1501343935.3,286046999.7,N
1501343955.1,286046998.3,N
1501343975.9,286047000.7,N
1501343995.7,286046996.6,N
